This demonstration page uses our WeatherBlox Daily Observations layout. Learn more.

Left ArrowRight Arrow

Hourly Observations for July 15, 2018

Temp ( °F °C ) Dew Point ( °F °C ) Humidity (%) Winds ( mph kmh ) Pressure ( in mb ) Visibility ( mi km ) Precip ( " mm )
12:59 am 00:59 Clear 72 22.2 65 18.3 79 79 S 6 9 30.14 1021 10 16 0.00 0.00
1:59 am 01:59 Clear 71 21.7 65 18.3 81 81 S 5 7 30.13 1020 10 16 0.00 0.00
2:59 am 02:59 Clear 70 21.1 65 18.3 84 84 S 5 7 30.11 1020 10 16 0.00 0.00
3:59 am 03:59 Clear 70 21.1 65 18.3 84 84 SSW 3 6 30.10 1019 10 16 0.00 0.00
4:59 am 04:59 Clear 70 21.1 66 18.9 87 87 SW 5 7 30.09 1019 10 16 0.00 0.00
5:59 am 05:59 Mostly Cloudy 69 20.6 65 18.3 87 87 SW 5 7 30.10 1019 10 16 0.00 0.00
6:59 am 06:59 Mostly Cloudy 71 21.7 66 18.9 84 84 SSW 3 6 30.11 1020 10 16 0.00 0.00
7:59 am 07:59 Sunny 74 23.3 67 19.4 79 79 SSW 8 13 30.11 1020 10 16 0.00 0.00
8:59 am 08:59 Mostly Cloudy 77 25 67 19.4 71 71 SSW 9 15 30.09 1019 10 16 0.00 0.00
9:59 am 09:59 Mostly Cloudy 80 26.7 66 18.9 62 62 SW 9 15 30.08 1019 10 16 0.00 0.00
10:59 am 10:59 Mostly Cloudy 82 27.8 68 20 63 63 SSW 10 17 30.09 1019 10 16 0.00 0.00
11:59 am 11:59 Mostly Cloudy 84 28.9 68 20 59 59 SW 7 11 30.08 1019 10 16 0.00 0.00
12:59 pm 12:59 Mostly Cloudy 85 29.4 66 18.9 53 53 SW 8 13 30.07 1018 10 16 0.00 0.00
1:59 pm 13:59 Mostly Cloudy 87 30.6 63 17.2 45 45 SW 9 15 30.06 1018 10 16 0.00 0.00
2:59 pm 14:59 Mostly Cloudy 88 31.1 63 17.2 43 43 VRB 3 6 30.05 1018 10 16 0.00 0.00
3:59 pm 15:59 Mostly Cloudy 88 31.1 68 20 52 52 VRB 3 6 30.04 1017 10 16 0.00 0.00
4:59 pm 16:59 Mostly Cloudy 88 31.1 65 18.3 46 46 SSW 5 7 30.02 1017 10 16 0.00 0.00
5:59 pm 17:59 Mostly Cloudy 87 30.6 66 18.9 50 50 VRB 5 7 30.01 1016 10 16 0.00 0.00
6:59 pm 18:59 Sunny 86 30 65 18.3 49 49 SSW 7 11 30.01 1016 10 16 0.00 0.00
7:59 pm 19:59 Mostly Cloudy 84 28.9 65 18.3 53 53 VRB 5 7 30.01 1016 10 16 0.00 0.00
8:59 pm 20:59 Mostly Cloudy 82 27.8 63 17.2 53 53 S 5 7 30.02 1017 10 16 0.00 0.00
9:59 pm 21:59 Mostly Cloudy 81 27.2 63 17.2 54 54 S 5 7 30.04 1017 10 16 0.00 0.00
10:59 pm 22:59 Partly Cloudy 80 26.7 64 17.8 58 58 S 6 9 30.04 1017 10 16 0.00 0.00
11:59 pm 23:59 Mostly Clear 79 26.1 68 20 69 69 SSW 8 13 30.05 1018 10 16 0.00 0.00

Powered by AerisWeather